Regional Weather Roundup
Issued by NWS Cleveland, OH

Home | Current Version | Previous Version | Graphics & Text | Print | Product List | Glossary On
Versions: 1 2 3 4 5 6 7 8 9 10 11 12 13 14 15 16 17 18 19 20 21 22 23 24 25 26 27 28 29 30 31 32 33 34 35 36 37 38 39 40 41 42 43 44 45 46 47 48 49 50
000
ASUS41 KCLE 032202
RWRCLE
OHIO REGIONAL WEATHER ROUNDUP
NATIONAL WEATHER SERVICE CLEVELAND, OH
500 PM EST TUE MAR 03 2015

NOTE: "FAIR" INDICATES FEW OR NO CLOUDS BELOW 12,000 FEET WITH NO
SIGNIFICANT WEATHER AND/OR OBSTRUCTIONS TO VISIBILITY.

OHZ001>008-015>018-024>027-034-035-043-044-032300-
   NORTHWEST OHIO

CITY           SKY/WX    TMP DP  RH WIND       PRES   REMARKS
DEFIANCE       CLOUDY    37  35  92 SW16      29.63F FOG
FINDLAY        CLOUDY    39  36  89 SW20G28   29.64S
TOLEDO EXPRESS CLOUDY    35  34  96 SW14G24   29.61S FOG     WCI  26
TOLEDO EXEC    CLOUDY    37  33  85 SW17G28   29.61F FOG
LIMA           CLOUDY    40  32  73 SW20      29.66R FOG
$$

OHZ009>014-019>023-028>033-038-089-032300-
   NORTHEAST OHIO

CITY           SKY/WX    TMP DP  RH WIND       PRES   REMARKS
CLE-HOPKINS    CLOUDY    37  34  89 S20G28    29.65F
CLE-LAKEFRONT  CLOUDY    40  35  83 S25G35    29.61F
CUY CO. ARPT   LGT RAIN  39  34  81 SW20G30   29.61F
LORAIN-ELYRIA  CLOUDY    41  37  86 SW24G33   29.64F
ASHTABULA      LGT RAIN  34  30  85 S17       29.64F WCI  23
AKRON-CANTON   FOG       38  35  89 S17G29    29.66F VSB 1
WOOSTER        LGT RAIN  35  34  96 SW14      29.67F FOG     WCI  26
MANSFIELD      CLOUDY    41  39  93 SW24G37   29.67S FOG
YOUNGSTOWN     LGT RAIN  33  31  92 S10G18    29.67F VSB 1   WCI  25
$$

OHZ042-051>053-060>062-070>072-077>081-032300-
  SOUTHWEST OHIO

CITY           SKY/WX    TMP DP  RH WIND       PRES   REMARKS
CINC-COVINGTON HVY RAIN  45  44  97 W12       29.78R VSB 1/4
CINC-LUNKEN    HVY RAIN  47  47 100 VRB5      29.79R VSB 1
HAMILTON       LGT RAIN  45  44  97 SW5       29.78S VSB 1
DAYTON         FOG       42  41  96 SW14      29.73S VSB 1
WRIGHT-PAT AFB CLOUDY    41  41 100 SW13      29.73S FOG
DAYTON GENERAL FOG       43  43 100 SW13      29.74F VSB 1/4
WILMINGTON     LGT RAIN  41  40  96 SW12      29.74S VSB<1/4
$$

OHZ036-037-039>041-045>050-054>059-063>069-073>076-082>088-032300-
  CENTRAL AND SOUTHEAST OHIO

CITY           SKY/WX    TMP DP  RH WIND       PRES   REMARKS
COLUMBUS       LGT RAIN  37  36  96 S6        29.74F FOG
OSU AIRPORT    CLOUDY    39  37  92 S10       29.72F FOG
BOLTON FIELD   DRIZZLE   39  39 100 SW12      29.74S
RICKENBACK AFB LGT RAIN  36  36  99 CALM      29.74S VSB 1/4
NEWARK         LGT RAIN  39  37  92 S7        29.73F FOG
MARION         CLOUDY    37  35  92 SW15      29.71S FOG
LANCASTER      LGT RAIN  44  42  93 SW12      29.74S FOG
ZANESVILLE     LGT RAIN  41  39  93 SW13      29.73F FOG
NEW PHILLY     LGT RAIN  41  37  86 SW5       29.74S FOG
$$


USA.gov is the U.S. government's official web portal to all federal, state and local government web resources and services.